Regional Weather Roundup
Issued by NWS

Home | Current Version | Previous Version | Text Only | Print | Product List | Glossary Off
Versions: 1 2 3 4 5 6 7 8 9 10 11 12 13 14 15 16 17 18 19 20 21 22 23 24 25 26 27 28 29 30 31 32 33 34 35 36 37 38 39 40 41 42 43 44 45 46 47 48 49 50

000
ASUS43 KDTX 281201
RWRMI
MICHIGAN HOURLY REGIONAL WEATHER ROUNDUP
NATIONAL WEATHER SERVICE DETROIT/PONTIAC MI
800 AM EDT THU APR 28 2016

NOTE: "FAIR" INDICATES FEW OR NO CLOUDS BELOW 12,000 FEET WITH NO
SIGNIFICANT WEATHER AND/OR OBSTRUCTION TO VISIBILITY.

MIZ047>049-052>055-059>063-066>070-074>076-081>083-281300-
SOUTHEAST LOWER MICHIGAN

CITY           SKY/WX    TMP DP  RH WIND       PRES   REMARKS
ADRIAN         LGT RAIN  41  35  79 E14       29.94R
6HR MIN TEMP:  41; 6HR MAX TEMP:  45;

ALMA           DRIZZLE   39  23  52 E9        30.01R WCI  33
ANN ARBOR      LGT RAIN  40  31  70 E7        29.96R
BAD AXE        CLOUDY    39  25  57 E9        30.04S WCI  33
6HR MIN TEMP:  34; 6HR MAX TEMP:  39;

CARO           CLOUDY    41  20  43 E8        30.01R
DETROIT CITY   CLOUDY    42  26  53 E12       29.99R
6HR MIN TEMP:  41; 6HR MAX TEMP:  43;

DETROIT        LGT RAIN  44  30  57 NE10      29.97R
6HR MIN TEMP:  43; 6HR MAX TEMP:  44; 6HR PCP: TRACE;

FLINT          CLOUDY    43  22  43 E13       30.01R
6HR MIN TEMP:  41; 6HR MAX TEMP:  44;

GROSSE ILE     RAIN      43  34  70 NE12      29.96R
HILLSDALE      LGT RAIN  39  31  75 E12       29.93R WCI  31
6HR MIN TEMP:  39; 6HR MAX TEMP:  46;

HOWELL         DRIZZLE   41  25  52 E8        29.97R

CITY           SKY/WX    TMP DP  RH WIND       PRES   REMARKS
JACKSON        LGT RAIN  39  50 100 E6        29.95R WCI  35
6HR MIN TEMP:  39; 6HR MAX TEMP:  48; 6HR PCP:  0.06;

LAMBERTVILLE   LGT RAIN  44  39  83 E8        29.95R
6HR MIN TEMP:  44; 6HR MAX TEMP:  47;

LANSING        LGT RAIN  38  27  64 E10       29.97R WCI  31
6HR MIN TEMP:  38; 6HR MAX TEMP:  46; 6HR PCP: TRACE;

LAPEER         PTSUNNY   39  22  50 E8        30.00R WCI  34
6HR MIN TEMP:  36; 6HR MAX TEMP:  39;

MASON          LGT RAIN  38  29  68 NE7       29.96R WCI  33
MONROE         RAIN      41  37  83 NE8       29.95R
6HR MIN TEMP:  41; 6HR MAX TEMP:  45; 6HR PCP:  0.05;

PONTIAC        CLOUDY    40  25  55 E8        29.97R WCI  34
6HR MIN TEMP:  40; 6HR MAX TEMP:  41;

PORT HOPE        N/A     39  32  76 NE12      30.04R WCI  32
6HR MIN TEMP:  38; 6HR MAX TEMP:  40;

PORT HURON     CLOUDY    41  23  48 E9        30.01S
TRI CITIES     CLOUDY    44  23  43 E10       30.03R
6HR MIN TEMP:  40; 6HR MAX TEMP:  44;

MIDLAND        CLOUDY    42  28  57 E10       30.01S
6HR MIN TEMP:  38; 6HR MAX TEMP:  42;

TROY           CLOUDY    43  25  49 NE12      30.01R
SAGINAW HB     CLOUDY    41  27  56 NE8       30.01R
$$
MIZ043>046-050>051-056>058-064>065-071>073-077>080-281300-
SOUTHWEST LOWER MICHIGAN

CITY           SKY/WX    TMP DP  RH WIND       PRES   REMARKS
BATTLE CREEK   LGT RAIN  38  30  73 E8        29.94R WCI  32
6HR MIN TEMP:  38; 6HR MAX TEMP:  51; 6HR PCP:  0.09;

BENTON HARBOR  CLOUDY    43  38  82 E10       29.88S
6HR MIN TEMP:  43; 6HR MAX TEMP:  50; 6HR PCP:  0.22;

BIG RAPIDS     CLOUDY    41  14  32 E15       29.99R
6HR MIN TEMP:  41; 6HR MAX TEMP:  43;

COLDWATER      CLOUDY    38  34  85 E9        29.93R WCI  32
6HR MIN TEMP:  38; 6HR MAX TEMP:  48;

FREMONT        DRIZZLE   41  21  45 E8G16     29.97R
HOLLAND        LGT RAIN  40  27  59 E17G25    29.92R WCI  31
6HR MIN TEMP:  40; 6HR MAX TEMP:  51; 6HR PCP:  0.06;

GRAND RAPIDS   RAIN      38  27  64 E10       29.95S WCI  31
6HR MIN TEMP:  38; 6HR MAX TEMP:  49; 6HR PCP:  0.09;

IONIA          RAIN      37  25  62 NE12G17   29.97R WCI  29
6HR MIN TEMP:  37; 6HR MAX TEMP:  45;

KALAMAZOO      CLOUDY    43  27  53 E12G17    29.92R
6HR MIN TEMP:  43; 6HR MAX TEMP:  52; 6HR PCP: TRACE;

LUDINGTON      CLOUDY    43  19  38 E14G20    29.97R
6HR MIN TEMP:  43; 6HR MAX TEMP:  47;

MARSHALL       LGT RAIN  38  32  79 E6        29.94R WCI  34
6HR MIN TEMP:  38; 6HR MAX TEMP:  49; 6HR PCP:  0.05;

MOUNT PLEASANT CLOUDY    40  30  68 E7        30.01R WCI  35
6HR MIN TEMP:  38; 6HR MAX TEMP:  41;

MUSKEGON       RAIN      37  28  70 NE14      29.96R WCI  28
6HR MIN TEMP:  37; 6HR MAX TEMP:  50; 6HR PCP:  0.08;

$$
MIZ016>042-281300-
NORTHERN LOWER MICHIGAN

CITY           SKY/WX    TMP DP  RH WIND       PRES   REMARKS
ALPENA         PTSUNNY   38  29  70 E9        30.09S WCI  31
6HR MIN TEMP:  31; 6HR MAX TEMP:  38;

BEAVER ISLAND  MOSUNNY   38  31  76 E9        30.08R WCI  31
6HR MIN TEMP:  34; 6HR MAX TEMP:  38;

BELLAIRE       PTSUNNY   40  24  52 NE3       30.05S
6HR MIN TEMP:  35; 6HR MAX TEMP:  40;

CADILLAC       CLOUDY    39  20  47 E10       29.98S WCI  32
CHARLEVOIX     PTSUNNY   40  26  59 E12       30.08S WCI  33
FRANKFORT      CLOUDY    42  23  46 E6        30.00R
GAYLORD        CLOUDY    35  25  66 NE8       30.04R WCI  29
6HR MIN TEMP:  34; 6HR MAX TEMP:  36;

GRAYLING       CLOUDY    36  27  69 E6        30.04S WCI  31
HARBOR SPRINGS CLOUDY    38  28  67 E14       30.07R WCI  29
HOUGHTON LAKE  CLOUDY    36  24  62 NE13      30.02S WCI  27
6HR MIN TEMP:  35; 6HR MAX TEMP:  37;

MANISTEE       PTSUNNY   45  16  31 E14       29.98S
OSCODA         MOSUNNY   39  32  74 NE6       30.07R WCI  35
6HR MIN TEMP:  29; 6HR MAX TEMP:  39;

PELLSTON       PTSUNNY   39  24  55 E9G20     30.09S WCI  33
6HR MIN TEMP:  29; 6HR MAX TEMP:  39;

ROGERS CITY    CLOUDY    38  28  68 E13G18    30.11F WCI  30
TRAVERSE CITY  CLOUDY    41  22  46 NE6       30.02S
6HR MIN TEMP:  37; 6HR MAX TEMP:  41;

$$
MIZ007>008-015-281300-
EASTERN UPPER MICHIGAN

CITY           SKY/WX    TMP DP  RH WIND       PRES   REMARKS
KINROSS          N/A     36  25  64 E13       30.11R WCI  27
6HR MIN TEMP:  30; 6HR MAX TEMP:  36;

MACKINAC ISLAN PTSUNNY   38  28  67 E12G20    30.09S WCI  30
6HR MIN TEMP:  33; 6HR MAX TEMP:  38;

NEWBERRY       CLOUDY    32  26  78 NE7       30.10S WCI  26
6HR MIN TEMP:  30; 6HR MAX TEMP:  32;

S. S. MARIE    CLOUDY    37  23  56 E6        30.11S WCI  32
6HR MIN TEMP:  32; 6HR MAX TEMP:  37;

MUNISING         N/A     37  27  67 N5        30.09S WCI  33
6HR MIN TEMP:  30; 6HR MAX TEMP:  37;

$$
MIZ004>006-011>014-085-281300-
CENTRAL UPPER MICHIGAN

CITY           SKY/WX    TMP DP  RH WIND       PRES   REMARKS
MANISTIQUE     MOSUNNY   36  25  65 E7        30.08R WCI  30
6HR MIN TEMP:  30; 6HR MAX TEMP:  36;

ESCANABA       MOSUNNY   37  27  65 NE9       30.08R WCI  31
6HR MIN TEMP:  36; 6HR MAX TEMP:  37;

MENOMINEE      CLOUDY    37  30  75 E16G23    30.03R WCI  28
6HR MIN TEMP:  37; 6HR MAX TEMP:  37;

SAWYER-GWINN   SUNNY     36  27  69 E6        30.10R WCI  31
$$
MIZ001>003-009>011-084-281300-
WESTERN UPPER MICHIGAN

CITY           SKY/WX    TMP DP  RH WIND       PRES   REMARKS
IRON MOUNTAIN  CLOUDY    38  21  50 NE7       30.04R WCI  33
6HR MIN TEMP:  34; 6HR MAX TEMP:  38;

HOUGHTON       CLOUDY    36  28  73 E9        30.10R WCI  29
6HR MIN TEMP:  35; 6HR MAX TEMP:  38;

COPPER HARBOR    N/A     38  29  70 VRB6      30.13R WCI  33
6HR MIN TEMP:  32; 6HR MAX TEMP:  38;

IRONWOOD       CLOUDY    36  14  41 E12       30.02S WCI  27
6HR MIN TEMP:  36; 6HR MAX TEMP:  37;

$$

ABBREVIATIONS USED IN REMARKS
   TC - TEMPERATURE IN CELSIUS
  WCI - WIND CHILL INDEX
   HX - HEAT INDEX
  VSB - VISIBILITY





USA.gov is the U.S. government's official web portal to all federal, state and local government web resources and services.